[[{"header":{"parameterUnit":"m.s-1","parameterCategory":1,"la1":30.2991,"la2":30.254,"lo1":-89.0895,"lo2":-89.0444,"dy":0.0017,"dx":0.0017,"nx":28,"ny":28,"refTime":"2023-10-06T21:00:00:Z","depth":0,"parameterNumber":2,"parameterNumberName":"U-component_of_WINDS"},"data":[0,0,0,0,0,0,0,0,0,0,0,0,0,0,0,0,0,0,0,0,0,0,0,0,0,0,0,0,0,0,0,0,0,0,0,0,0,0,0,0,0,0,0,0,0,0,0,0,0,0,0,0,0,0,0,0,0,0,-4.1097,-4.1097,0,-4.1123,-4.1123,-4.1123,-4.1031,-4.1028,-4.1025,-4.1022,-4.1049,-4.1053,-4.1056,0,0,0,0,0,0,0,0,0,0,0,0,0,-4.0967,-4.097,-4.1097,-4.1097,-4.1097,-4.1123,-4.1123,-4.1123,-4.1031,-4.1028,-4.1024,-4.1021,-4.1048,-4.1052,-4.1056,0,0,0,0,0,0,0,0,0,0,0,0,0,-4.1012,-4.0971,-4.1097,-4.1054,-4.1051,-4.1123,-4.1123,-4.1123,-4.1032,-4.1028,-4.1023,-4.102,-4.1047,-4.1052,-4.1057,-4.1171,0,0,-4.1072,-4.1074,0,0,0,0,0,0,0,0,-4.1009,-4.1016,-4.106,-4.1057,-4.1054,-4.1069,-4.1087,-4.1139,-4.1033,-4.1039,-4.1022,-4.1017,-4.1059,-4.1063,-4.1077,-4.1172,-4.1173,-4.1072,-4.1075,-4.1077,-4.1079,0,0,0,0,0,0,0,-4.1006,-4.1015,-4.1107,-4.1061,-4.1057,-4.1034,-4.1036,-4.1097,-4.1072,-4.1038,-4.1031,-4.1036,-4.1057,-4.1072,-4.1077,-4.1173,-4.1072,-4.1076,-4.108,-4.1081,-4.1363,-4.1367,0,0,0,0,0,0,-4.1009,-4.1013,-4.1106,-4.1108,-4.1021,-4.104,-4.1042,-4.1068,-4.1071,-4.1068,-4.1039,-4.1031,-4.1066,-4.1071,-4.1078,-4.1211,-4.1077,-4.1082,-4.1085,-4.1359,-4.1364,-4.1369,0,0,0,0,0,0,-4.1006,-4.1018,-4.1105,-4.1059,-4.1068,-4.1046,-4.1077,-4.1071,-4.1087,-4.1072,-4.1067,-4.106,-4.1063,-4.1071,-4.1148,-4.1211,-4.1084,-4.1089,-4.1353,-4.136,-4.1366,-4.1479,0,0,0,0,0,0,-4.1003,-4.1018,-4.1061,-4.106,-4.1071,-4.1176,-4.1081,-4.1075,-4.1095,-4.1085,-4.109,-4.1087,-4.106,-4.1141,-4.1153,-4.1215,-4.1093,-4.1347,-4.1356,-4.1364,-4.147,-4.1489,-4.1506,0,0,0,0,0,-4.0999,-4.1091,-4.1063,-4.1075,-4.1124,-4.1179,-4.1185,-4.1152,-4.1101,-4.1144,-4.1135,-4.1087,-4.1202,-4.115,-4.1162,-4.1227,-4.1343,-4.1354,-4.1364,-4.1462,-4.1485,-4.1505,0,0,0,0,0,0,-4.11,-4.1091,-4.1059,-4.1154,-4.1168,-4.1163,-4.1217,-4.1178,-4.1207,-4.1196,-4.1155,-4.1157,-4.1242,-4.1242,-4.1184,-4.1338,-4.1264,-4.1277,-4.1334,-4.1356,-4.1374,-4.1372,-4.1097,0,0,0,0,0,-4.1133,-4.1179,-4.1168,-4.1253,-4.1262,-4.1239,-4.1261,-4.1235,-4.1248,-4.1253,-4.1249,-4.1264,-4.1303,-4.1329,-4.1365,-4.147,-4.1469,-4.152,-4.1538,-4.1553,-4.1565,-4.162,-4.1643,-4.1402,-4.1402,-4.1402,0,0,-4.1202,-4.1203,-4.1234,-4.1274,-4.1281,-4.1329,-4.1244,-4.1299,-4.1334,-4.1261,-4.1334,-4.1332,-4.1345,-4.1437,-4.1477,-4.144,-4.1631,-4.1566,-4.1578,-4.1581,-4.1633,-4.1656,-4.1676,-4.1409,-4.1408,-4.1407,0,0,-4.1353,-4.1359,-4.143,-4.144,-4.1452,-4.1436,-4.1454,-4.1455,-4.1451,-4.1523,-4.147,-4.1511,-4.158,-4.1591,-4.1606,-4.1762,-4.172,-4.1775,-4.1868,-4.1923,-4.1942,-4.1959,-4.2014,-4.2035,-4.1787,-4.1787,-4.1787,0,-4.1438,-4.1509,-4.1472,-4.153,-4.1549,-4.1486,-4.1558,-4.1569,-4.1593,-4.1607,-4.1565,-4.165,-4.1654,-4.1748,-4.1786,-4.18,-4.1819,-4.1774,-4.1942,-4.1958,-4.1973,-4.2026,-4.2047,-4.1794,-4.1793,-4.1793,-4.1792,0,-4.1612,-4.1662,-4.1718,-4.1743,-4.1768,-4.1833,-4.1807,-4.1837,-4.1808,-4.1797,-4.1872,-4.1875,-4.191,-4.193,-4.1903,-4.202,-4.1997,-4.1949,-4.1874,-4.2004,-4.2053,-4.2073,-4.1804,-4.1801,-4.1799,-4.1797,0,0,-4.1827,-4.1831,-4.1852,-4.1863,-4.1872,-4.191,-4.1973,-4.2007,-4.2034,-4.2052,-4.2104,-4.2163,-4.212,-4.2137,-4.211,-4.2158,-4.2282,-4.2105,-4.2104,-4.2138,-4.2412,-4.2448,-4.2472,-4.2254,-4.2257,-4.226,-4.2411,0,-4.1976,-4.2082,-4.2051,-4.2159,-4.2204,-4.2145,-4.2199,-4.2211,-4.2202,-4.224,-4.2229,-4.2273,-4.2211,-4.2221,-4.2266,-4.2258,-4.2337,-4.2246,-4.2301,-4.2304,-4.23,-4.2497,-4.2535,-4.2677,-4.243,-4.2433,-4.2435,0,-4.2163,-4.2189,-4.2302,-4.2304,-4.2322,-4.2371,-4.24,-4.2437,-4.2449,-4.2439,-4.2459,-4.2423,-4.2484,-4.2409,-4.2493,-4.2432,-4.2453,-4.2452,-4.2457,-4.2461,-4.2377,-4.2507,-4.2721,-4.2743,-4.2465,-4.2463,-4.246,0,-4.2309,-4.2372,-4.2448,-4.2459,-4.2463,-4.2499,-4.2503,-4.2511,-4.2534,-4.2559,-4.2573,-4.2606,-4.2624,-4.265,-4.2623,-4.2571,-4.2712,-4.2634,-4.2705,-4.2706,-4.2738,-4.2736,-4.2959,-4.2751,-4.2751,-4.2751,-4.275,0,-4.2478,-4.2549,-4.2513,-4.256,-4.2637,-4.2601,-4.2679,-4.2676,-4.2684,-4.2728,-4.2679,-4.2722,-4.2684,-4.2724,-4.2704,-4.2777,-4.2785,-4.2779,-4.2773,-4.2784,-4.2784,-4.2796,-4.2786,-4.2756,-4.2755,-4.2754,-4.2753,0,-4.2654,-4.2633,-4.2711,-4.2709,-4.2711,-4.2768,-4.2766,-4.2809,-4.2796,-4.2854,-4.2865,-4.2846,-4.289,-4.2866,-4.2912,-4.2898,-4.2993,-4.2973,-4.2989,-4.2984,-4.3056,-4.305,-4.3294,-4.3324,-4.3098,-4.31,-4.3102,0,-4.2764,-4.2817,-4.2821,-4.2847,-4.2854,-4.2898,-4.292,-4.2887,-4.2913,-4.2931,-4.2972,-4.3012,-4.3042,-4.3116,-4.3106,-4.314,-4.3121,-4.3205,-4.3126,-4.3135,-4.3123,-4.312,-4.3125,-4.322,-4.3223,-4.3225,-4.3227,0,-4.296,-4.2947,-4.2982,-4.3014,-4.3043,-4.3067,-4.3086,-4.311,-4.3077,-4.3109,-4.3153,-4.3177,-4.3224,-4.3264,-4.3294,-4.3297,-4.3257,-4.3252,-4.327,-4.3282,-4.3288,-4.3286,-4.3032,-4.3246,-4.3244,-4.3243,-4.3242,-4.3241,-4.3106,-4.3151,-4.3161,-4.3201,-4.3212,-4.3232,-4.3272,-4.3265,-4.3301,-4.3337,-4.3315,-4.3368,-4.3379,-4.3415,-4.3424,-4.3464,-4.3431,-4.3457,-4.3464,-4.3471,-4.3481,-4.3282,-4.347,-4.3469,-4.3468,-4.3468,-4.3467,0,-4.33,-4.3303,-4.3341,-4.337,-4.3402,-4.3362,-4.3381,-4.3411,-4.3458,-4.3472,-4.3502,-4.3554,-4.3593,-4.3586,-4.3622,-4.3656,-4.3638,-4.3666,-4.3663,-4.3665,-4.3509,-4.3489,-4.368,-4.368,-4.368,-4.368,-4.368,-4.368,-4.3404,-4.3478,-4.3466,-4.3545,-4.3547,-4.3599,-4.3614,-4.3631,-4.3642,-4.3702,-4.3734,-4.3729,-4.3735,-4.3771,-4.3805,-4.3802,-4.3817,-4.3852,-4.3842,-4.3697,-4.3676,-4.3656,-4.3637,-4.3856,-4.3856,-4.3995,-4.3996,-4.3997]},{"header":{"parameterUnit":"m.s-1","parameterCategory":1,"la1":30.2991,"la2":30.254,"lo1":-89.0895,"lo2":-89.0444,"dy":0.0017,"dx":0.0017,"nx":28,"ny":28,"refTime":"2023-10-06T21:00:00:Z","depth":0,"parameterNumber":3,"parameterNumberName":"V-component_of_WINDS"},"data":[0,0,0,0,0,0,0,0,0,0,0,0,0,0,0,0,0,0,0,0,0,0,0,0,0,0,0,0,0,0,0,0,0,0,0,0,0,0,0,0,0,0,0,0,0,0,0,0,0,0,0,0,0,0,0,0,0,0,-4.141,-4.141,0,-4.1473,-4.1474,-4.1474,-4.1442,-4.144,-4.1439,-4.1437,-4.1499,-4.1503,-4.1506,0,0,0,0,0,0,0,0,0,0,0,0,0,-4.1258,-4.1261,-4.141,-4.141,-4.1411,-4.1473,-4.1474,-4.1475,-4.1442,-4.144,-4.1438,-4.1436,-4.1498,-4.1502,-4.1506,0,0,0,0,0,0,0,0,0,0,0,0,0,-4.1323,-4.1262,-4.141,-4.1403,-4.1403,-4.1473,-4.1474,-4.1475,-4.1443,-4.144,-4.1438,-4.1435,-4.1497,-4.1502,-4.1507,-4.1586,0,0,-4.1521,-4.1523,0,0,0,0,0,0,0,0,-4.1319,-4.1328,-4.1403,-4.1403,-4.1403,-4.1447,-4.1443,-4.1512,-4.1443,-4.1427,-4.1437,-4.1434,-4.1484,-4.149,-4.1507,-4.1589,-4.1592,-4.1522,-4.1525,-4.1527,-4.1528,0,0,0,0,0,0,0,-4.1315,-4.1325,-4.1435,-4.1404,-4.1404,-4.1395,-4.1402,-4.1456,-4.1469,-4.1429,-4.1426,-4.1434,-4.1484,-4.1502,-4.1508,-4.1593,-4.1522,-4.1526,-4.1529,-4.1531,-4.1743,-4.1746,0,0,0,0,0,0,-4.1311,-4.1322,-4.1433,-4.1437,-4.1354,-4.14,-4.1407,-4.1436,-4.1468,-4.1471,-4.1437,-4.1433,-4.1495,-4.1503,-4.151,-4.1606,-4.1527,-4.1531,-4.1534,-4.1741,-4.1744,-4.1747,0,0,0,0,0,0,-4.1308,-4.1321,-4.143,-4.1379,-4.1392,-4.1405,-4.1437,-4.1438,-4.1457,-4.1474,-4.1476,-4.1454,-4.1494,-4.1503,-4.1568,-4.1607,-4.1533,-4.1538,-4.1737,-4.1742,-4.1746,-4.1798,0,0,0,0,0,0,-4.1304,-4.132,-4.1351,-4.138,-4.1395,-4.1488,-4.144,-4.1441,-4.1466,-4.1461,-4.1491,-4.1493,-4.1492,-4.1561,-4.1573,-4.1613,-4.1542,-4.1734,-4.1739,-4.1744,-4.1792,-4.1803,-4.1812,0,0,0,0,0,-4.1298,-4.1363,-4.1353,-4.1367,-4.1434,-4.149,-4.1498,-4.1497,-4.1469,-4.15,-4.1511,-4.1492,-4.1601,-4.1568,-4.1581,-4.1623,-4.1731,-4.1738,-4.1744,-4.1788,-4.1801,-4.1812,0,0,0,0,0,0,-4.1338,-4.1367,-4.1356,-4.1432,-4.1459,-4.1484,-4.1524,-4.1511,-4.1546,-4.154,-4.1536,-4.1543,-4.161,-4.1622,-4.1585,-4.1702,-4.1662,-4.1671,-4.1691,-4.1703,-4.1713,-4.1709,-4.1546,0,0,0,0,0,-4.1356,-4.14,-4.1422,-4.1487,-4.1501,-4.151,-4.1534,-4.1531,-4.1558,-4.1569,-4.1585,-4.1611,-4.1651,-4.1678,-4.1716,-4.1794,-4.18,-4.1829,-4.1839,-4.1847,-4.1855,-4.1897,-4.191,-4.1767,-4.1767,-4.1767,0,0,-4.1393,-4.1414,-4.1442,-4.1495,-4.1516,-4.156,-4.152,-4.1569,-4.1602,-4.1576,-4.1638,-4.1651,-4.168,-4.1752,-4.1784,-4.1764,-4.1896,-4.1855,-4.1861,-4.1865,-4.1905,-4.1918,-4.193,-4.1772,-4.1771,-4.177,0,0,-4.1483,-4.1504,-4.156,-4.1581,-4.1613,-4.1619,-4.1632,-4.166,-4.1667,-4.173,-4.1712,-4.175,-4.1819,-4.1841,-4.1861,-4.1959,-4.1943,-4.1971,-4.2023,-4.2064,-4.2075,-4.2085,-4.212,-4.2132,-4.1979,-4.1979,-4.1979,0,-4.1525,-4.1592,-4.159,-4.1641,-4.1665,-4.1645,-4.1701,-4.1722,-4.1764,-4.178,-4.1758,-4.1845,-4.1863,-4.1939,-4.1963,-4.198,-4.1995,-4.1968,-4.2074,-4.2084,-4.2093,-4.2126,-4.2139,-4.1982,-4.1982,-4.1982,-4.1981,0,-4.1642,-4.1689,-4.173,-4.1773,-4.1801,-4.1854,-4.1859,-4.1888,-4.1882,-4.189,-4.1953,-4.1974,-4.2016,-4.2034,-4.2028,-4.2109,-4.2096,-4.2074,-4.2034,-4.211,-4.2141,-4.2154,-4.1987,-4.1986,-4.1985,-4.1984,0,0,-4.1759,-4.18,-4.1815,-4.1834,-4.1867,-4.1903,-4.1955,-4.1997,-4.2022,-4.2051,-4.2094,-4.2153,-4.2133,-4.2155,-4.2152,-4.2188,-4.2264,-4.2161,-4.2162,-4.2179,-4.2354,-4.2371,-4.2386,-4.2253,-4.2256,-4.2258,-4.2352,0,-4.1852,-4.1944,-4.1943,-4.2028,-4.2071,-4.2053,-4.2098,-4.2123,-4.2131,-4.2168,-4.2177,-4.2219,-4.2189,-4.2202,-4.2237,-4.2247,-4.2299,-4.224,-4.2293,-4.2295,-4.2287,-4.2402,-4.242,-4.2508,-4.2364,-4.2366,-4.2368,0,-4.1972,-4.2007,-4.2096,-4.2124,-4.2141,-4.2182,-4.222,-4.2256,-4.2283,-4.2287,-4.2313,-4.2303,-4.2355,-4.2313,-4.2384,-4.2345,-4.2366,-4.2374,-4.2378,-4.2383,-4.2336,-4.241,-4.2536,-4.2549,-4.2387,-4.2385,-4.2384,0,-4.2049,-4.2118,-4.218,-4.2197,-4.223,-4.2259,-4.2274,-4.2299,-4.2324,-4.2357,-4.2373,-4.2411,-4.2432,-4.2461,-4.2462,-4.2432,-4.2534,-4.2492,-4.2538,-4.2538,-4.256,-4.2559,-4.2691,-4.2574,-4.2573,-4.2573,-4.2573,0,-4.2153,-4.2208,-4.2215,-4.2254,-4.2315,-4.2313,-4.2373,-4.2385,-4.2408,-4.2448,-4.2433,-4.2471,-4.2469,-4.2507,-4.2508,-4.2567,-4.2576,-4.258,-4.2579,-4.2581,-4.2581,-4.2595,-4.2589,-4.2577,-4.2576,-4.2575,-4.2575,0,-4.2249,-4.2256,-4.2323,-4.2349,-4.2357,-4.2401,-4.2422,-4.2459,-4.2465,-4.2516,-4.2527,-4.2538,-4.2582,-4.2586,-4.2636,-4.2636,-4.2707,-4.27,-4.2699,-4.2697,-4.2743,-4.2738,-4.2889,-4.2909,-4.2778,-4.278,-4.2781,0,-4.2315,-4.2358,-4.2388,-4.2414,-4.2431,-4.2473,-4.2499,-4.2498,-4.2525,-4.256,-4.2591,-4.2634,-4.2668,-4.2738,-4.275,-4.2788,-4.2782,-4.2832,-4.2787,-4.2788,-4.2783,-4.278,-4.2784,-4.2841,-4.2842,-4.2843,-4.2844,0,-4.2431,-4.2433,-4.2471,-4.251,-4.2541,-4.2572,-4.2601,-4.2622,-4.2625,-4.2656,-4.2701,-4.2728,-4.2779,-4.2821,-4.2859,-4.2873,-4.2859,-4.2858,-4.2871,-4.2873,-4.2871,-4.2873,-4.2722,-4.2855,-4.2854,-4.2853,-4.2852,-4.2852,-4.2514,-4.2551,-4.2579,-4.2621,-4.2643,-4.267,-4.2705,-4.2717,-4.2755,-4.2797,-4.2794,-4.2844,-4.2869,-4.2919,-4.2936,-4.2974,-4.2957,-4.2975,-4.298,-4.2984,-4.2989,-4.2864,-4.2981,-4.298,-4.298,-4.298,-4.298,0,-4.263,-4.2647,-4.2686,-4.2727,-4.276,-4.2745,-4.2776,-4.2805,-4.2849,-4.2874,-4.2908,-4.296,-4.3,-4.3015,-4.3055,-4.3082,-4.3077,-4.3092,-4.3091,-4.3094,-4.3002,-4.2987,-4.3096,-4.3096,-4.3096,-4.3096,-4.3096,-4.3096,-4.2694,-4.2755,-4.276,-4.2831,-4.2847,-4.2897,-4.2916,-4.294,-4.2961,-4.3019,-4.3053,-4.3063,-4.3084,-4.3125,-4.3161,-4.3164,-4.3179,-4.3198,-4.3198,-4.3112,-4.31,-4.3089,-4.3075,-4.3201,-4.3201,-4.3287,-4.3288,-4.3289]}]]